Weather History for Muncie, IN

Change the Weather History Date:

Monday, January 7, 2013

  Actual Average Record
Temperature  
Mean Temperature 36 °F 27 °F  
Max Temperature 46 °F 34 °F 64 °F (2008)
Min Temperature 25 °F 19 °F -14 °F (2014)
Degree Days  
Heating Degree Days 30 38  
Month to date heating degree days 266  
Since 1 July heating degree days 2464  
Cooling Degree Days 0 0  
Month to date cooling degree days 0  
Year to date cooling degree days 0  
Moisture  
Dew Point 20 °F    
Average Humidity 57    
Maximum Humidity 75    
Minimum Humidity 36    
Precipitation  
Precipitation 0.00 in 0.07 in 0.30 in (1981)
Month to date precipitation 0.56  
Year to date precipitation 0.56  
Sea Level Pressure  
Sea Level Pressure 30.35 in    
Wind  
Wind Speed 6 mph (SSW)    
Max Wind Speed 17 mph    
Max Gust Speed 23 mph    
Visibility 6 miles    
Events      
T = Trace of Precipitation, MM = Missing Value Source: NWS Daily Summary

Daily Weather History Graph

Daily Weather History Graph

Search for Another Location

Airport:

Trip Planner

Search our weather history database for the weather conditions in past years. The results will help you decide how hot, cold, wet, or windy it might be!

Date:

Astronomy

Jan. 07, 2013 Rise Set
Actual Time 8:04 AM EST 5:32 PM EST
Civil Twilight 7:33 AM EST 6:02 PM EST
Nautical Twilight 7:00 AM EST 6:36 PM EST
Astronomical Twilight 6:27 AM EST 7:09 PM EST
Moon 3:27 AM EST (1/7) 1:42 PM EST (1/7)
Length of Visible Light 10h 28m
Length of Day
9h 27m
Waning Crescent, 23% of the Moon is Illuminated
Jan 7
Waning Crescent
Jan 11
New
Jan 18
First Quarter
Jan 26
Full
Feb 3
Last Quarter

Hourly Weather History & Observations

Time (EST) Temp. Windchill Dew Point Humidity Pressure Visibility Wind Dir Wind Speed Gust Speed Precip Events Conditions
12:53 AM 46.0 °F 43.9 °F 21.9 °F 39% 30.34 in 6.0 mi WSW 4.6 mph - N/A   Haze
1:53 AM 45.0 °F 42.6 °F 21.0 °F 39% 30.34 in 6.0 mi WSW 4.6 mph - N/A   Haze
2:03 AM 44.6 °F 43.1 °F 21.2 °F 39% 30.33 in 6.0 mi WSW 3.5 mph - N/A   Haze
2:53 AM 37.9 °F 35.5 °F 19.0 °F 47% 30.37 in 6.0 mi WSW 3.5 mph - N/A   Haze
3:35 AM 42.8 °F 41.1 °F 17.6 °F 36% 30.36 in 6.0 mi West 3.5 mph - N/A   Haze
3:53 AM 27.0 °F - 19.0 °F 72% 30.39 in 5.0 mi Calm Calm - N/A   Haze
4:53 AM 25.0 °F - 17.1 °F 72% 30.39 in 4.0 mi Calm Calm - N/A   Haze
5:53 AM 36.0 °F 33.3 °F 17.1 °F 46% 30.41 in 3.0 mi SW 3.5 mph - N/A   Haze
6:53 AM 33.1 °F 30.0 °F 17.1 °F 52% 30.42 in 3.0 mi South 3.5 mph - N/A   Haze
7:53 AM 37.9 °F 34.4 °F 16.0 °F 41% 30.43 in 3.0 mi SW 4.6 mph - N/A   Haze
8:06 AM 37.4 °F 33.8 °F 15.8 °F 41% 30.42 in 2.0 mi SW 4.6 mph - N/A   Haze
8:53 AM 42.1 °F 38.4 °F 17.1 °F 37% 30.43 in 2.5 mi SSW 5.8 mph - N/A   Haze
9:24 AM 39.2 °F 37.0 °F 19.4 °F 45% 30.43 in 3.0 mi SSW 3.5 mph - N/A   Haze
9:53 AM 27.0 °F 21.6 °F 19.9 °F 75% 30.44 in 4.0 mi SSW 4.6 mph - N/A   Haze
10:53 AM 28.0 °F 20.0 °F 19.9 °F 72% 30.43 in 6.0 mi South 8.1 mph - N/A   Haze
11:53 AM 30.0 °F 21.1 °F 21.0 °F 69% 30.42 in 9.0 mi SW 10.4 mph - N/A   Clear
12:53 PM 32.0 °F 23.0 °F 21.0 °F 64% 30.38 in 10.0 mi SSW 11.5 mph - N/A   Clear
2:53 PM 34.0 °F 23.4 °F 21.9 °F 61% 30.32 in 10.0 mi South 17.3 mph 23.0 mph N/A   Clear
3:53 PM 34.0 °F 24.6 °F 21.9 °F 61% 30.30 in 10.0 mi South 13.8 mph 23.0 mph N/A   Clear
4:53 PM 34.0 °F 24.6 °F 21.9 °F 61% 30.29 in 9.0 mi SSW 13.8 mph 20.7 mph N/A   Clear
5:53 PM 33.1 °F 26.1 °F 21.9 °F 64% 30.28 in 8.0 mi SSW 8.1 mph - N/A   Clear
6:53 PM 30.9 °F 25.2 °F 21.9 °F 69% 30.28 in 8.0 mi South 5.8 mph - N/A   Clear
7:53 PM 30.0 °F 23.2 °F 21.0 °F 69% 30.27 in 7.0 mi South 6.9 mph - N/A   Clear
8:53 PM 30.0 °F 21.1 °F 21.0 °F 69% 30.23 in 8.0 mi South 10.4 mph - N/A   Clear
9:53 PM 32.0 °F 23.6 °F 21.9 °F 66% 30.23 in 8.0 mi South 10.4 mph - N/A   Clear
10:53 PM 32.0 °F 23.0 °F 21.9 °F 66% 30.23 in 8.0 mi SSW 11.5 mph - N/A   Clear
11:53 PM 30.0 °F 21.7 °F 21.0 °F 69% 30.22 in 7.0 mi South 9.2 mph - N/A   Clear